DW6083 Weather Reports


Display with metric or nautical units.
time (UTC)temp
F
wind
direction
speed
MPH
gust
MPH
rain 1hr
in
rain 24hr
in
rain mn
in
humidity
%
barometer
mb
20260507144519 65 336 0.0 0.0 0.00 0.00 0.00 1 1009.2
20260507143011 65 338 0.0 0.0 0.00 0.00 0.00 1 1009.7
20260507141507 65 338 0.0 0.0 0.00 0.00 0.00 1 1009.2
20260507140003 65 338 0.0 1.0 0.00 0.00 0.00 1 1009.9
20260507134610 65 338 1.0 5.0 0.00 0.00 0.00 1 1010.3
20260507133100 66 173 0.0 0.0 0.00 0.00 0.00 1 1009.4
20260507131613 66 173 0.0 0.0 0.00 0.00 0.00 1 1009.0
20260507130045 66 173 0.0 0.0 0.00 0.00 0.00 1 1009.2
20260507124550 66 174 0.0 0.0 0.00 0.00 0.00 1 1009.2
20260507123042 66 174 0.0 0.0 0.00 0.00 0.00 1 1009.3
20260507121531 66 174 0.0 0.0 0.00 0.00 0.00 1 1009.1
20260507120031 66 174 0.0 4.0 0.00 0.00 0.00 1 1009.0
20260507114525 66 173 5.0 7.0 0.00 0.00 0.00 1 1008.3
20260507113036 0 175 3.0 6.0 0.00 0.00 0.00 1008.0
20260507111513 0 166 4.0 8.0 0.00 0.00 0.00 1008.3
20260507110009 0 188 6.0 10.0 0.00 0.00 0.00 1008.8
20260507104505 0 174 6.0 11.0 0.00 0.00 0.00 1009.4
20260507103059 0 251 2.0 10.0 0.00 0.00 0.00 1009.5
20260507101557 0 161 6.0 11.0 0.00 0.00 0.00 1009.6
20260507100058 0 182 0.0 0.0 0.00 0.00 0.00 1009.8
20260507094548 0 180 0.0 0.0 0.00 0.00 0.00 1009.7
20260507093043 0 180 0.0 0.0 0.00 0.00 0.00 1009.6
20260507091542 0 180 0.0 0.0 0.00 0.00 0.00 1009.8
20260507090034 0 180 0.0 0.0 0.00 0.00 0.00 1010.3
20260507084545 0 180 0.0 0.0 0.00 0.00 0.00 1010.4
20260507083026 0 180 0.0 0.0 0.00 0.00 0.00 1010.3
20260507081521 0 180 0.0 0.0 0.00 0.00 0.00 1010.4
20260507080017 0 180 0.0 0.0 0.00 0.00 0.00 1010.2
20260507074511 0 180 0.0 0.0 0.00 0.00 0.00 1010.1
20260507073007 0 180 0.0 0.0 0.00 0.00 0.00 1010.3
20260507071507 0 180 0.0 0.0 0.00 0.00 0.00 1010.7
20260507070109 0 180 0.0 0.0 0.00 0.00 0.00 1010.9
20260507064559 0 180 0.0 0.0 0.00 0.00 0.00 1011.1
20260507063054 0 180 0.0 0.0 0.00 0.00 0.00 1011.0
20260507061545 0 180 0.0 0.0 0.00 0.00 0.00 1011.3
20260507060043 0 180 0.0 0.0 0.00 0.00 0.00 1011.1
20260507054540 0 180 2.0 4.0 0.00 0.00 0.00 1010.6
20260507053031 0 180 2.0 5.0 0.00 0.00 0.00 1010.7
20260507051528 0 180 3.0 5.0 0.00 0.00 0.00 1010.7
20260507050046 0 157 0.0 0.0 0.00 0.00 0.00 1010.6
20260507044522 0 62 0.0 0.0 0.00 0.00 0.00 1011.1
20260507043011 0 62 0.0 0.0 0.00 0.00 0.00 1011.6
20260507041507 0 62 0.0 0.0 0.00 0.00 0.00 1011.3
20260507040002 0 62 0.0 0.0 0.00 0.00 0.00 1011.7
20260507034505 0 62 0.0 2.0 0.00 0.00 0.00 1012.5
20260507033002 0 37 0.0 0.0 0.00 0.00 0.00 1012.6
20260507031501 0 274 0.0 0.0 0.00 0.00 0.00 1013.1
20260507024559 0 273 0.0 0.0 0.00 0.00 0.00 1013.4
20260507023058 0 274 0.0 4.0 0.00 0.00 0.00 1014.2
20260507021606 0 12 0.0 3.0 0.00 0.00 0.00 1013.4
20260507020058 0 355 1.0 8.0 0.00 0.00 0.00 1013.1
20260507014559 0 179 0.0 0.0 0.00 0.00 0.00 1011.8
20260507013055 0 179 0.0 0.0 0.00 0.00 0.00 1011.2
20260507011558 0 179 0.0 0.0 0.00 0.00 0.00 1010.6
20260507010055 0 178 0.0 0.0 0.00 0.00 0.00 1010.3
20260507004555 0 178 0.0 0.0 0.00 0.00 0.00 1010.2
20260507003052 0 178 0.0 0.0 0.00 0.00 0.00 1010.1
20260507001548 0 178 3.0 6.0 0.00 0.00 0.00 1010.2
20260507000044 0 178 2.0 6.0 0.00 0.00 0.00 1010.6
20260506234549 0 178 3.0 6.0 0.00 0.00 0.00 1010.3
20260506233038 0 178 3.0 8.0 0.00 0.00 0.00 1010.3
20260506231537 0 178 2.0 5.0 0.00 0.00 0.00 1010.6
20260506230036 0 178 2.0 5.0 0.00 0.00 0.00 1010.5
20260506224537 0 178 2.0 7.0 0.00 0.00 0.00 1010.4
20260506223033 0 186 2.0 7.0 0.00 0.00 0.00 1010.3
20260506221528 0 228 2.0 9.0 0.00 0.00 0.00 1010.4
20260506220031 0 184 5.0 9.0 0.00 0.00 0.00 1010.6
20260506214522 0 202 3.0 7.0 0.00 0.00 0.00 1010.9
20260506213028 0 198 3.0 11.0 0.00 0.00 0.00 1010.8
20260506211617 0 284 5.0 10.0 0.00 0.00 0.00 1010.9
20260506210012 0 201 5.0 10.0 0.00 0.00 0.00 1010.7
20260506204508 88 263 2.0 6.0 0.00 0.00 0.00 48 1011.1
20260506203011 87 273 3.0 11.0 0.00 0.00 0.00 52 1011.2
20260506201600 87 245 3.0 7.0 0.00 0.00 0.00 50 1011.4
20260506200110 86 248 6.0 14.0 0.00 0.00 0.00 50 1011.9
20260506194603 85 277 4.0 10.0 0.00 0.00 0.00 49 1011.9
20260506193045 84 219 1.0 10.0 0.00 0.00 0.00 53 1012.3
20260506191541 84 214 4.0 10.0 0.00 0.00 0.00 51 1012.4
20260506190039 83 173 5.0 10.0 0.00 0.00 0.00 55 1012.5
20260506184533 82 234 4.0 12.0 0.00 0.00 0.00 54 1012.8
20260506183027 82 240 6.0 14.0 0.00 0.00 0.00 55 1013.0
20260506181527 80 188 7.0 11.0 0.00 0.00 0.00 56 1012.8
20260506180018 78 236 3.0 13.0 0.00 0.00 0.00 55 1013.0
20260506174514 77 174 7.0 15.0 0.00 0.00 0.00 51 1013.9
20260506173008 76 246 4.0 10.0 0.00 0.00 0.00 48 1014.1
20260506171510 75 207 5.0 9.0 0.00 0.00 0.00 44 1014.7
20260506170108 75 256 5.0 11.0 0.00 0.00 0.00 43 1014.5
20260506164557 74 176 6.0 10.0 0.00 0.00 0.00 28 1014.9
20260506163054 73 209 3.0 11.0 0.00 0.00 0.00 20 1015.1
20260506161551 72 185 5.0 11.0 0.00 0.00 0.00 11 1015.1
20260506160045 71 261 3.0 10.0 0.00 0.00 0.00 13 1015.5
20260506154536 71 211 5.0 11.0 0.00 0.00 0.00 3 1015.2
20260506153031 70 242 2.0 8.0 0.00 0.00 0.00 1 1015.1
20260506151534 70 192 6.0 9.0 0.00 0.00 0.00 1 1015.1
20260506150029 69 190 4.0 7.0 0.00 0.00 0.00 1 1014.8